This demonstration page uses our WeatherBlox Daily Observations layout. Learn more.

Left ArrowRight Arrow

41.86663, -103.66717

Hourly Observations for October 8, 2015

Temp ( °F °C ) Dew Point ( °F °C ) Humidity (%) Winds ( mph kmh ) Pressure ( in mb ) Visibility ( mi km ) Precip ( " mm )
12:53 am 00:53 Clear 49 9.4 46 7.8 90 90 NW 5 7 30.02 1017 10 16 N/A
1:53 am 01:53 Clear 49 9.4 45 7.2 86 86 NW 8 13 30.03 1017 10 16 N/A
2:53 am 02:53 Clear 49 9.4 45 7.2 86 86 N 8 13 30.03 1017 10 16 N/A
3:53 am 03:53 Clear 48 8.9 44 6.7 86 86 N 8 13 30.04 1017 10 16 N/A
4:53 am 04:53 Clear 45 7.2 43 6.1 93 93 NW 3 6 30.05 1018 10 16 N/A
5:53 am 05:53 Clear 45 7.2 42 5.6 90 90 NW 3 6 30.07 1018 10 16 N/A
6:53 am 06:53 Clear 45 7.2 43 6.1 93 93 NNW 5 7 30.10 1019 9 14 N/A
7:53 am 07:53 Sunny 48 8.9 45 7.2 89 89 WNW 6 9 30.15 1021 9 14 N/A
8:53 am 08:53 Sunny 50 10 47 8.3 89 89 NW 3 6 30.17 1022 10 16 N/A
9:53 am 09:53 Sunny 53 11.7 49 9.4 86 86 WNW 3 6 30.18 1022 10 16 N/A
10:53 am 10:53 Mostly Cloudy 60 15.6 50 10 70 70 NW 3 6 30.19 1022 10 16 N/A
11:53 am 11:53 Cloudy 60 15.6 49 9.4 67 67 W 6 9 30.21 1023 N/A N/A
12:53 pm 12:53 Mostly Cloudy 64 17.8 45 7.2 50 50 undefined N/A 30.19 1023 10 16 N/A
1:53 pm 13:53 Cloudy 62 16.7 45 7.2 54 54 NE 14 22 30.19 1023 10 16 N/A
2:53 pm 14:53 Cloudy 59 15 47 8.3 64 64 NE 10 17 30.21 1023 10 16 N/A
3:53 pm 15:53 Mostly Cloudy 59 15 47 8.3 64 64 NE 7 11 30.23 1024 10 16 N/A
4:53 pm 16:53 Cloudy 58 14.4 48 8.9 70 70 E 7 11 30.26 1025 10 16 N/A
5:53 pm 17:53 Cloudy 58 14.4 49 9.4 72 72 ESE 5 7 30.26 1025 10 16 N/A
6:53 pm 18:53 Mostly Clear 54 12.2 50 10 87 87 ENE 5 7 30.29 1026 10 16 N/A
7:53 pm 19:53 Mostly Cloudy 53 11.7 50 10 89 89 N N/A 30.31 1027 10 16 N/A
8:53 pm 20:53 Partly Cloudy 52 11.1 49 9.4 89 89 E 5 7 30.33 1027 10 16 N/A
9:53 pm 21:53 Cloudy 51 10.6 48 8.9 89 89 N N/A 30.34 1028 10 16 N/A
10:53 pm 22:53 Clear 47 8.3 45 7.2 93 93 N N/A 30.34 1028 10 16 N/A
11:53 pm 23:53 Mostly Clear 46 7.8 44 6.7 93 93 N N/A 30.34 1027 10 16 N/A

Powered by AerisWeather